| time (UTC) | temp F | wind direction | speed knots | gust knots | rain 1hr in | rain 24hr in | rain mn in | humidity % | barometer mb |
| 20260508064535 | 52 | 233 | 0.0 | 0.0 | 0.00 | 0.29 | 0.00 | 98 | 1014.5 |
| 20260508063531 | 52 | 233 | 0.0 | 0.0 | 0.00 | 0.29 | 0.00 | 98 | 1014.5 |
| 20260508062526 | 52 | 0.0 | 0.0 | 0.00 | 0.29 | 0.00 | 98 | 1014.4 | |
| 20260508061521 | 52 | 0.0 | 0.0 | 0.00 | 0.29 | 0.00 | 98 | 1014.4 | |
| 20260508060517 | 52 | 0.0 | 0.0 | 0.00 | 0.29 | 0.00 | 98 | 1014.3 | |
| 20260508055533 | 52 | 0.0 | 0.0 | 0.00 | 0.29 | 0.00 | 98 | 1014.5 | |
| 20260508054528 | 52 | 0.0 | 0.0 | 0.00 | 0.29 | 0.00 | 98 | 1014.5 | |
| 20260508053524 | 52 | 0.0 | 0.0 | 0.00 | 0.29 | 0.00 | 98 | 1014.4 | |
| 20260508052520 | 52 | 0.0 | 0.0 | 0.00 | 0.29 | 0.00 | 98 | 1014.4 | |
| 20260508051536 | 52 | 0.0 | 0.0 | 0.00 | 0.29 | 0.00 | 98 | 1014.3 | |
| 20260508050531 | 51 | 0.0 | 0.0 | 0.00 | 0.29 | 0.00 | 98 | 1014.2 | |
| 20260508045607 | 51 | 0.0 | 0.0 | 0.00 | 0.29 | 0.00 | 98 | 1014.3 | |
| 20260508044522 | 52 | 0.0 | 0.0 | 0.00 | 0.30 | 0.00 | 98 | 1014.1 | |
| 20260508043538 | 52 | 233 | 0.0 | 0.0 | 0.00 | 0.39 | 0.00 | 98 | 1014.0 |
| 20260508042534 | 52 | 0.0 | 0.0 | 0.00 | 0.42 | 0.00 | 98 | 1013.9 | |
| 20260508041529 | 53 | 233 | 0.0 | 0.9 | 0.00 | 0.45 | 0.00 | 98 | 1014.1 |
| 20260508040525 | 52 | 233 | 0.0 | 0.0 | 0.00 | 0.46 | 0.00 | 98 | 1014.1 |
| 20260508035519 | 52 | 233 | 0.0 | 0.0 | 0.00 | 0.52 | 0.49 | 98 | 1013.9 |
| 20260508034534 | 53 | 233 | 0.0 | 0.9 | 0.00 | 0.53 | 0.49 | 97 | 1014.0 |
| 20260508033530 | 53 | 0.0 | 0.0 | 0.00 | 0.53 | 0.49 | 97 | 1013.7 | |
| 20260508032525 | 53 | 0.0 | 0.0 | 0.00 | 0.53 | 0.49 | 97 | 1013.5 | |
| 20260508031520 | 53 | 0.0 | 0.0 | 0.00 | 0.53 | 0.49 | 97 | 1013.5 | |
| 20260508030535 | 54 | 0.0 | 0.0 | 0.00 | 0.54 | 0.49 | 97 | 1013.6 | |
| 20260508025530 | 54 | 0.0 | 0.0 | 0.00 | 0.54 | 0.49 | 97 | 1013.4 | |
| 20260508024546 | 54 | 0.0 | 0.0 | 0.00 | 0.54 | 0.49 | 97 | 1013.5 | |
| 20260508023521 | 54 | 0.0 | 0.0 | 0.00 | 0.54 | 0.49 | 97 | 1013.4 | |
| 20260508022516 | 54 | 0.0 | 0.0 | 0.00 | 0.55 | 0.49 | 97 | 1013.4 | |
| 20260508021531 | 54 | 233 | 0.0 | 0.0 | 0.00 | 0.55 | 0.49 | 97 | 1013.2 |
| 20260508020526 | 54 | 0.0 | 0.0 | 0.00 | 0.55 | 0.49 | 97 | 1013.1 | |
| 20260508015522 | 54 | 0.0 | 0.0 | 0.00 | 0.55 | 0.49 | 97 | 1012.9 | |
| 20260508014517 | 54 | 0.0 | 0.0 | 0.00 | 0.55 | 0.49 | 97 | 1012.7 | |
| 20260508013532 | 54 | 233 | 0.0 | 0.0 | 0.00 | 0.55 | 0.49 | 97 | 1012.8 |
| 20260508012528 | 54 | 0.0 | 0.0 | 0.00 | 0.55 | 0.49 | 96 | 1012.4 | |
| 20260508011523 | 54 | 233 | 0.0 | 0.0 | 0.00 | 0.55 | 0.49 | 96 | 1012.0 |
| 20260508010539 | 55 | 233 | 0.0 | 0.0 | 0.00 | 0.55 | 0.49 | 96 | 1011.8 |
| 20260508005535 | 55 | 0.0 | 0.0 | 0.00 | 0.55 | 0.49 | 96 | 1011.9 | |
| 20260508004531 | 55 | 0.0 | 0.0 | 0.00 | 0.55 | 0.49 | 96 | 1012.0 | |
| 20260508003527 | 55 | 0.0 | 0.0 | 0.00 | 0.55 | 0.49 | 96 | 1012.0 | |
| 20260508002523 | 55 | 233 | 0.0 | 0.0 | 0.00 | 0.55 | 0.49 | 96 | 1011.9 |
| 20260508001518 | 55 | 233 | 0.0 | 0.9 | 0.00 | 0.55 | 0.49 | 96 | 1011.8 |
| 20260508000534 | 56 | 0.0 | 0.0 | 0.00 | 0.55 | 0.49 | 95 | 1011.7 | |
| 20260507235529 | 55 | 233 | 0.0 | 0.0 | 0.00 | 0.55 | 0.49 | 95 | 1011.8 |
| 20260507234525 | 56 | 0.0 | 0.0 | 0.00 | 0.55 | 0.49 | 95 | 1011.4 | |
| 20260507233521 | 56 | 210 | 0.0 | 0.9 | 0.00 | 0.55 | 0.49 | 95 | 1011.3 |
| 20260507232517 | 56 | 239 | 0.0 | 0.9 | 0.00 | 0.55 | 0.49 | 95 | 1011.0 |
| 20260507231532 | 56 | 326 | 0.0 | 0.9 | 0.00 | 0.55 | 0.49 | 95 | 1010.5 |
| 20260507230528 | 56 | 269 | 0.0 | 0.9 | 0.00 | 0.55 | 0.49 | 96 | 1010.6 |
| 20260507225524 | 56 | 271 | 0.0 | 0.9 | 0.00 | 0.55 | 0.49 | 95 | 1010.6 |
| 20260507224519 | 56 | 163 | 0.9 | 1.7 | 0.00 | 0.55 | 0.49 | 95 | 1010.9 |
| 20260507223535 | 57 | 225 | 0.0 | 1.7 | 0.00 | 0.55 | 0.49 | 95 | 1010.5 |
| 20260507222531 | 57 | 237 | 0.0 | 0.9 | 0.01 | 0.55 | 0.49 | 95 | 1010.5 |
| 20260507221527 | 57 | 237 | 0.0 | 1.7 | 0.01 | 0.55 | 0.49 | 94 | 1010.3 |
| 20260507220522 | 57 | 254 | 0.0 | 0.9 | 0.01 | 0.55 | 0.49 | 95 | 1010.3 |
| 20260507215539 | 56 | 251 | 0.0 | 0.0 | 0.01 | 0.55 | 0.49 | 95 | 1010.4 |
| 20260507214534 | 56 | 278 | 0.9 | 1.7 | 0.01 | 0.55 | 0.49 | 95 | 1010.6 |
| 20260507213529 | 57 | 277 | 0.9 | 1.7 | 0.01 | 0.55 | 0.49 | 94 | 1010.4 |
| 20260507212525 | 57 | 291 | 0.9 | 3.5 | 0.00 | 0.54 | 0.48 | 93 | 1010.2 |
| 20260507211521 | 57 | 222 | 0.0 | 1.7 | 0.00 | 0.54 | 0.48 | 94 | 1010.3 |
| 20260507210516 | 57 | 303 | 0.9 | 2.6 | 0.00 | 0.54 | 0.48 | 92 | 1010.3 |
| 20260507205552 | 57 | 315 | 0.0 | 1.7 | 0.00 | 0.54 | 0.48 | 94 | 1010.1 |
| 20260507204528 | 58 | 305 | 0.9 | 2.6 | 0.00 | 0.54 | 0.48 | 95 | 1009.9 |
| 20260507203523 | 58 | 4 | 0.9 | 1.7 | 0.00 | 0.54 | 0.48 | 95 | 1009.8 |
| 20260507202519 | 58 | 347 | 0.0 | 0.9 | 0.00 | 0.54 | 0.48 | 95 | 1009.9 |
| 20260507201535 | 58 | 314 | 0.0 | 1.7 | 0.00 | 0.54 | 0.48 | 95 | 1009.6 |
| 20260507200551 | 58 | 238 | 0.0 | 0.9 | 0.00 | 0.54 | 0.48 | 94 | 1009.8 |
| 20260507195546 | 59 | 266 | 0.9 | 3.5 | 0.00 | 0.54 | 0.48 | 94 | 1009.4 |
| 20260507194522 | 59 | 275 | 0.0 | 0.9 | 0.00 | 0.54 | 0.48 | 94 | 1009.7 |
| 20260507193517 | 59 | 40 | 0.0 | 0.9 | 0.00 | 0.54 | 0.48 | 95 | 1009.9 |
| 20260507192533 | 59 | 38 | 0.0 | 0.9 | 0.00 | 0.54 | 0.48 | 95 | 1009.7 |
| 20260507191528 | 59 | 291 | 0.9 | 2.6 | 0.00 | 0.54 | 0.48 | 94 | 1009.8 |
| 20260507190523 | 59 | 18 | 0.9 | 1.7 | 0.00 | 0.54 | 0.48 | 95 | 1010.0 |
| 20260507185538 | 59 | 344 | 0.9 | 0.9 | 0.00 | 0.57 | 0.48 | 95 | 1010.1 |
| 20260507184554 | 58 | 105 | 0.9 | 1.7 | 0.01 | 0.60 | 0.48 | 95 | 1009.8 |
| 20260507183530 | 59 | 294 | 0.9 | 5.2 | 0.01 | 0.63 | 0.48 | 96 | 1009.3 |
| 20260507182525 | 58 | 31 | 0.9 | 2.6 | 0.01 | 0.64 | 0.48 | 95 | 1009.5 |
| 20260507181541 | 59 | 302 | 0.9 | 1.7 | 0.02 | 0.66 | 0.48 | 95 | 1010.0 |
| 20260507180517 | 60 | 268 | 0.9 | 1.7 | 0.02 | 0.66 | 0.48 | 94 | 1009.5 |
| 20260507175533 | 62 | 12 | 0.9 | 3.5 | 0.02 | 0.66 | 0.48 | 93 | 1009.4 |
| 20260507174528 | 67 | 7 | 0.9 | 3.5 | 0.01 | 0.65 | 0.47 | 96 | 1009.1 |
| 20260507173524 | 67 | 100 | 0.9 | 1.7 | 0.01 | 0.65 | 0.47 | 97 | 1008.7 |
| 20260507172520 | 67 | 102 | 0.0 | 0.9 | 0.01 | 0.65 | 0.47 | 95 | 1009.9 |
| 20260507171535 | 67 | 112 | 0.0 | 0.9 | 0.01 | 0.64 | 0.46 | 95 | 1009.1 |
| 20260507170550 | 67 | 0.0 | 0.0 | 0.01 | 0.64 | 0.46 | 95 | 1008.8 | |
| 20260507165526 | 67 | 112 | 0.0 | 0.9 | 0.02 | 0.64 | 0.46 | 95 | 1008.7 |
| 20260507164521 | 67 | 113 | 0.0 | 0.9 | 0.03 | 0.64 | 0.46 | 95 | 1008.6 |
| 20260507163516 | 67 | 113 | 0.0 | 0.0 | 0.04 | 0.64 | 0.46 | 96 | 1008.6 |
| 20260507162532 | 67 | 0.0 | 0.0 | 0.04 | 0.64 | 0.46 | 96 | 1009.0 | |
| 20260507161528 | 67 | 113 | 0.0 | 0.9 | 0.03 | 0.63 | 0.45 | 96 | 1009.3 |
| 20260507160524 | 67 | 108 | 0.9 | 1.7 | 0.03 | 0.63 | 0.45 | 96 | 1010.1 |
| 20260507155519 | 68 | 99 | 0.0 | 0.9 | 0.03 | 0.62 | 0.44 | 97 | 1010.1 |
| 20260507154536 | 68 | 41 | 0.0 | 0.9 | 0.02 | 0.61 | 0.43 | 97 | 1010.2 |
| 20260507153531 | 68 | 41 | 0.0 | 0.9 | 0.02 | 0.60 | 0.42 | 97 | 1010.2 |
| 20260507152527 | 68 | 41 | 0.0 | 0.0 | 0.02 | 0.60 | 0.42 | 98 | 1009.7 |
| 20260507151522 | 67 | 0.0 | 0.0 | 0.02 | 0.60 | 0.42 | 98 | 1009.5 | |
| 20260507150558 | 67 | 0.0 | 0.0 | 0.03 | 0.60 | 0.42 | 98 | 1009.5 | |
| 20260507145534 | 68 | 0.0 | 0.0 | 0.04 | 0.59 | 0.41 | 98 | 1009.9 | |
| 20260507144529 | 67 | 40 | 0.0 | 0.0 | 0.05 | 0.59 | 0.41 | 98 | 1009.9 |
| 20260507143525 | 67 | 41 | 0.9 | 0.9 | 0.04 | 0.58 | 0.40 | 98 | 1009.4 |
| 20260507142522 | 67 | 41 | 0.0 | 0.9 | 0.06 | 0.58 | 0.40 | 98 | 1009.6 |
| 20260507141537 | 67 | 40 | 0.0 | 0.0 | 0.07 | 0.58 | 0.40 | 98 | 1009.9 |
| 20260507140552 | 67 | 0.0 | 0.0 | 0.07 | 0.57 | 0.39 | 98 | 1009.7 | |
| 20260507135629 | 67 | 41 | 0.0 | 0.0 | 0.05 | 0.55 | 0.37 | 98 | 1009.8 |
| 20260507134524 | 66 | 41 | 0.0 | 0.0 | 0.04 | 0.54 | 0.36 | 98 | 1010.0 |
| 20260507133519 | 66 | 41 | 0.0 | 0.9 | 0.05 | 0.54 | 0.36 | 98 | 1010.4 |
| 20260507132535 | 66 | 41 | 0.0 | 0.9 | 0.03 | 0.52 | 0.34 | 98 | 1010.7 |
| 20260507131531 | 66 | 0.0 | 0.0 | 0.02 | 0.51 | 0.33 | 98 | 1010.7 | |
| 20260507130527 | 66 | 0.0 | 0.0 | 0.01 | 0.50 | 0.32 | 98 | 1010.5 | |
| 20260507125522 | 66 | 0.0 | 0.0 | 0.01 | 0.50 | 0.32 | 98 | 1010.4 | |
| 20260507124518 | 66 | 41 | 0.0 | 0.9 | 0.01 | 0.50 | 0.32 | 98 | 1010.4 |
| 20260507123534 | 65 | 41 | 0.0 | 0.0 | 0.00 | 0.49 | 0.31 | 98 | 1010.5 |
| 20260507122530 | 65 | 0.0 | 0.0 | 0.00 | 0.49 | 0.31 | 98 | 1010.5 | |
| 20260507121525 | 65 | 0.0 | 0.0 | 0.00 | 0.49 | 0.31 | 98 | 1010.3 | |
| 20260507120541 | 65 | 0.0 | 0.0 | 0.00 | 0.49 | 0.31 | 98 | 1010.3 | |
| 20260507115517 | 65 | 0.0 | 0.0 | 0.00 | 0.49 | 0.31 | 98 | 1010.3 | |
| 20260507114533 | 65 | 0.0 | 0.0 | 0.00 | 0.49 | 0.31 | 98 | 1010.6 | |
| 20260507113528 | 65 | 0.0 | 0.0 | 0.00 | 0.49 | 0.31 | 98 | 1010.4 | |
| 20260507112524 | 65 | 0.0 | 0.0 | 0.00 | 0.49 | 0.31 | 98 | 1010.7 | |
| 20260507111519 | 65 | 0.0 | 0.0 | 0.00 | 0.49 | 0.31 | 98 | 1010.8 | |
| 20260507110534 | 65 | 0.0 | 0.0 | 0.00 | 0.49 | 0.31 | 98 | 1010.7 | |
| 20260507105530 | 65 | 0.0 | 0.0 | 0.01 | 0.49 | 0.31 | 98 | 1010.7 | |
| 20260507104606 | 64 | 0.0 | 0.0 | 0.01 | 0.49 | 0.31 | 98 | 1010.6 | |
| 20260507103541 | 64 | 0.0 | 0.0 | 0.01 | 0.49 | 0.31 | 98 | 1010.2 | |
| 20260507102516 | 64 | 0.0 | 0.0 | 0.01 | 0.49 | 0.31 | 98 | 1010.3 | |
| 20260507101531 | 64 | 0.0 | 0.0 | 0.01 | 0.49 | 0.31 | 98 | 1010.4 | |
| 20260507100527 | 64 | 0.0 | 0.0 | 0.02 | 0.49 | 0.31 | 98 | 1010.3 | |
| 20260507095521 | 64 | 34 | 0.0 | 0.0 | 0.01 | 0.48 | 0.30 | 98 | 1010.3 |
| 20260507094517 | 64 | 36 | 0.0 | 0.9 | 0.01 | 0.48 | 0.30 | 98 | 1010.2 |
| 20260507093532 | 64 | 35 | 0.0 | 0.0 | 0.01 | 0.48 | 0.30 | 98 | 1010.2 |
| 20260507092527 | 64 | 0.0 | 0.0 | 0.01 | 0.48 | 0.30 | 98 | 1010.6 | |
| 20260507091522 | 64 | 0.0 | 0.0 | 0.01 | 0.48 | 0.30 | 98 | 1010.5 | |
| 20260507090518 | 64 | 0.0 | 0.0 | 0.01 | 0.47 | 0.29 | 98 | 1010.5 | |
| 20260507085534 | 64 | 35 | 0.0 | 0.9 | 0.01 | 0.47 | 0.29 | 98 | 1010.4 |
| 20260507084530 | 64 | 0.0 | 0.0 | 0.01 | 0.47 | 0.29 | 98 | 1010.8 | |
| 20260507083525 | 64 | 36 | 0.0 | 0.0 | 0.01 | 0.47 | 0.29 | 98 | 1010.6 |
| 20260507082541 | 64 | 35 | 0.0 | 0.0 | 0.03 | 0.47 | 0.29 | 98 | 1010.9 |
| 20260507081515 | 64 | 0.0 | 0.0 | 0.08 | 0.47 | 0.29 | 98 | 1011.1 | |
| 20260507080531 | 64 | 0.0 | 0.0 | 0.07 | 0.46 | 0.28 | 98 | 1011.4 | |
| 20260507075526 | 64 | 0.0 | 0.0 | 0.07 | 0.46 | 0.28 | 97 | 1011.3 | |
| 20260507074521 | 64 | 35 | 0.0 | 0.0 | 0.08 | 0.46 | 0.28 | 97 | 1010.8 |
| 20260507073517 | 64 | 0.0 | 0.0 | 0.08 | 0.46 | 0.28 | 97 | 1010.6 | |
| 20260507072533 | 64 | 35 | 0.0 | 0.9 | 0.06 | 0.44 | 0.26 | 97 | 1011.3 |
| 20260507071529 | 64 | 30 | 0.0 | 0.0 | 0.01 | 0.39 | 0.21 | 97 | 1011.8 |
| 20260507070524 | 64 | 0.0 | 0.0 | 0.01 | 0.39 | 0.21 | 97 | 1011.9 | |
| 20260507065520 | 64 | 0.0 | 0.0 | 0.01 | 0.39 | 0.21 | 97 | 1011.8 |